Weather History for KIOB - October, 2012

Change the Weather History Date:

Tuesday, October 23, 2012

  Actual Average Record
Temperature  
Mean Temperature 66 °F -  
Max Temperature 77 °F 66 °F 59 °F (2014)
Min Temperature 55 °F 40 °F 33 °F (2013)
Cooling Degree Days 1    
Growing Degree Days 16 (Base 50)    
Moisture  
Dew Point 49 °F    
Average Humidity 55    
Maximum Humidity 72    
Minimum Humidity 34    
Precipitation  
Precipitation 0.00 in - - ()
Sea Level Pressure  
Sea Level Pressure 30.11 in    
Wind  
Wind Speed 6 mph ()    
Max Wind Speed 15 mph    
Max Gust Speed 21 mph    
Visibility 10.0 miles    
Events Rain    
Averages and records for this station are not official NWS values.
T = Trace of Precipitation, MM = Missing Value Source: Averaged Metar Reports

Daily Weather History Graph

Daily Weather History Graph

Search for Another Location

Airport or City:

Trip Planner

Search our weather history database for the weather conditions in past years. The results will help you decide how hot, cold, wet, or windy it might be!

Date:

Astronomy

Oct. 23, 2012 Rise Set
Actual Time 7:52 AM EDT 6:46 PM EDT
Civil Twilight 7:26 AM EDT 7:13 PM EDT
Nautical Twilight 6:55 AM EDT 7:44 PM EDT
Astronomical Twilight 6:24 AM EDT 8:14 PM EDT
Moon 3:25 PM EDT (10/23) 1:49 AM EDT (10/23)
Length of Visible Light 11h 47m
Length of Day
10h 53m
Waxing Gibbous, 66% of the Moon is Illuminated
Oct 23
Waxing Gibbous
Oct 29
Full
Nov 6
Last Quarter
Nov 13
New
Nov 20
First Quarter

Hourly Weather History & Observations

Time (EDT) Temp. Dew Point Humidity Pressure Visibility Wind Dir Wind Speed Gust Speed Precip Events Conditions
12:15 AM 62.6 °F 50.0 °F 63% 30.10 in 10.0 mi SSW 6.9 mph - N/A   Clear
12:35 AM 62.6 °F 50.0 °F 63% 30.11 in 10.0 mi SW 5.8 mph - N/A   Mostly Cloudy
1:15 AM 60.8 °F 50.0 °F 68% 30.11 in 10.0 mi SW 4.6 mph - N/A   Clear
1:35 AM 62.6 °F 50.0 °F 63% 30.11 in 10.0 mi SW 4.6 mph - N/A   Clear
1:55 AM 60.8 °F 48.2 °F 63% 30.10 in 10.0 mi SW 4.6 mph - N/A   Clear
2:15 AM 59.0 °F 48.2 °F 67% 30.11 in 10.0 mi SW 4.6 mph - N/A   Clear
2:35 AM 59.0 °F 48.2 °F 67% 30.11 in 10.0 mi SW 5.8 mph - N/A   Clear
2:55 AM 60.8 °F 46.4 °F 59% 30.11 in 10.0 mi SW 5.8 mph - N/A   Clear
3:15 AM 59.0 °F 46.4 °F 63% 30.11 in 10.0 mi SW 4.6 mph - N/A   Clear
3:55 AM 59.0 °F 46.4 °F 63% 30.10 in 10.0 mi SSW 6.9 mph - N/A   Clear
4:15 AM 59.0 °F 46.4 °F 63% 30.10 in 10.0 mi SSW 5.8 mph - N/A   Clear
4:35 AM 55.4 °F 46.4 °F 72% 30.10 in 10.0 mi SW 4.6 mph - N/A   Clear
4:55 AM 59.0 °F 46.4 °F 63% 30.10 in 10.0 mi SW 6.9 mph - N/A   Clear
5:15 AM 60.8 °F 46.4 °F 59% 30.11 in 10.0 mi SW 6.9 mph - N/A   Clear
5:55 AM 59.0 °F 48.2 °F 67% 30.12 in 10.0 mi SW 6.9 mph - N/A   Clear
6:15 AM 59.0 °F 48.2 °F 67% 30.12 in 10.0 mi SW 5.8 mph - N/A   Clear
6:35 AM 59.0 °F 48.2 °F 67% 30.12 in 10.0 mi SW 6.9 mph - N/A   Clear
6:55 AM 59.0 °F 48.2 °F 67% 30.13 in 10.0 mi SW 5.8 mph - N/A   Clear
7:35 AM 59.0 °F 48.2 °F 67% 30.13 in 10.0 mi SW 8.1 mph - N/A   Clear
7:55 AM 59.0 °F 48.2 °F 67% 30.14 in 10.0 mi SW 5.8 mph - N/A   Clear
8:15 AM 59.0 °F 50.0 °F 72% 30.14 in 10.0 mi SW 5.8 mph - N/A   Clear
8:35 AM 59.0 °F 50.0 °F 72% 30.14 in 10.0 mi SW 5.8 mph - N/A   Clear
8:55 AM 60.8 °F 50.0 °F 68% 30.14 in 10.0 mi WSW 5.8 mph - N/A   Clear
9:15 AM 62.6 °F 50.0 °F 63% 30.15 in 10.0 mi SW 6.9 mph - N/A   Clear
9:35 AM 62.6 °F 51.8 °F 68% 30.15 in 10.0 mi SW 5.8 mph - N/A   Clear
10:15 AM 64.4 °F 51.8 °F 64% 30.16 in 10.0 mi WSW 9.2 mph - N/A   Clear
10:35 AM 66.2 °F 51.8 °F 60% 30.16 in 10.0 mi WSW 9.2 mph - N/A   Clear
10:55 AM 68.0 °F 53.6 °F 60% 30.16 in 10.0 mi WSW 10.4 mph - N/A   Clear
11:15 AM 68.0 °F 53.6 °F 60% 30.16 in 10.0 mi WSW 9.2 mph - N/A   Clear
11:55 AM 71.6 °F 53.6 °F 53% 30.17 in 10.0 mi West 9.2 mph - N/A   Clear
12:15 PM 71.6 °F 51.8 °F 50% 30.17 in 10.0 mi West 10.4 mph 20.7 mph N/A   Clear
12:35 PM 71.6 °F 51.8 °F 50% 30.16 in 10.0 mi West 15.0 mph 19.6 mph N/A   Clear
12:55 PM 71.6 °F 51.8 °F 50% 30.16 in 10.0 mi West 15.0 mph 19.6 mph N/A   Clear
1:15 PM 73.4 °F 51.8 °F 47% 30.15 in 10.0 mi West 10.4 mph 17.3 mph N/A   Clear
1:35 PM 75.2 °F 51.8 °F 44% 30.14 in 10.0 mi WNW 10.4 mph 16.1 mph N/A   Clear
1:55 PM 73.4 °F 51.8 °F 47% 30.13 in 10.0 mi West 11.5 mph 17.3 mph N/A   Clear
2:15 PM 77.0 °F 51.8 °F 41% 30.12 in 10.0 mi WSW 9.2 mph - N/A   Clear
2:35 PM 77.0 °F 50.0 °F 39% 30.12 in 10.0 mi West 9.2 mph - N/A   Clear
2:55 PM 77.0 °F 48.2 °F 36% 30.11 in 10.0 mi West 11.5 mph 17.3 mph N/A   Clear
3:35 PM 77.0 °F 48.2 °F 36% 30.10 in 10.0 mi West 6.9 mph 10.4 mph N/A   Clear
3:55 PM 77.0 °F 46.4 °F 34% 30.09 in 10.0 mi WSW 10.4 mph - N/A   Clear
4:15 PM 77.0 °F 46.4 °F 34% 30.09 in 10.0 mi West 9.2 mph - N/A   Clear
4:35 PM 77.0 °F 46.4 °F 34% 30.08 in 10.0 mi West 8.1 mph - N/A   Clear
4:55 PM 77.0 °F 50.0 °F 39% 30.08 in 10.0 mi WSW 6.9 mph - N/A   Clear
5:15 PM 77.0 °F 50.0 °F 39% 30.08 in 10.0 mi WSW 9.2 mph - N/A   Clear
5:35 PM 75.2 °F 50.0 °F 41% 30.08 in 10.0 mi WSW 6.9 mph - N/A   Clear
5:55 PM 73.4 °F 48.2 °F 41% 30.08 in 10.0 mi WSW 5.8 mph - N/A   Clear
6:15 PM 73.4 °F 48.2 °F 41% 30.07 in 10.0 mi SW 3.5 mph - N/A   Clear
6:35 PM 71.6 °F 48.2 °F 43% 30.07 in 10.0 mi SW 4.6 mph - N/A   Clear
6:55 PM 71.6 °F 46.4 °F 41% 30.07 in 10.0 mi WSW 3.5 mph - N/A   Clear
7:15 PM 69.8 °F 46.4 °F 43% 30.08 in 10.0 mi SW 4.6 mph - N/A   Clear
7:35 PM 68.0 °F 48.2 °F 49% 30.08 in 10.0 mi SSW 4.6 mph - N/A   Clear
7:55 PM 62.6 °F 50.0 °F 63% 30.08 in 10.0 mi SW 4.6 mph - N/A   Clear
8:15 PM 64.4 °F 50.0 °F 59% 30.08 in 10.0 mi SW 4.6 mph - N/A   Clear
8:35 PM 68.0 °F 46.4 °F 46% 30.08 in 10.0 mi SW 5.8 mph - N/A   Clear
8:55 PM 68.0 °F 48.2 °F 49% 30.08 in 10.0 mi SW 5.8 mph - N/A   Clear
9:15 PM 68.0 °F 46.4 °F 46% 30.08 in 10.0 mi SW 4.6 mph - N/A   Clear
9:35 PM 64.4 °F 46.4 °F 52% 30.09 in 10.0 mi SW 4.6 mph - N/A   Clear
9:55 PM 60.8 °F 50.0 °F 68% 30.10 in 10.0 mi SW 3.5 mph - N/A   Clear
10:15 PM 64.4 °F 46.4 °F 52% 30.10 in 10.0 mi SW 5.8 mph - N/A   Clear
10:35 PM 64.4 °F 46.4 °F 52% 30.10 in 10.0 mi SW 5.8 mph - N/A   Clear
10:55 PM 62.6 °F 48.2 °F 59% 30.10 in 10.0 mi SW 4.6 mph - N/A   Clear
11:15 PM 64.4 °F 48.2 °F 56% 30.10 in 10.0 mi SW 4.6 mph - N/A   Scattered Clouds
11:35 PM 64.4 °F 46.4 °F 52% 30.11 in 10.0 mi SW 4.6 mph - N/A   Mostly Cloudy
11:55 PM 64.4 °F 48.2 °F 56% 30.10 in 10.0 mi SW 6.9 mph - N/A Rain Light Rain